Weather History for Boise, ID

Change the Weather History Date:

Tuesday, October 11, 2011

  Actual Average Record
Temperature  
Mean Temperature 58 °F 55 °F  
Max Temperature 67 °F 68 °F 87 °F (1950)
Min Temperature 49 °F 42 °F 22 °F (1990)
Degree Days  
Heating Degree Days 7 10  
Month to date heating degree days 86 95  
Since 1 July heating degree days 96 216  
Cooling Degree Days 0 0  
Month to date cooling degree days 22 7  
Year to date cooling degree days 1076 941  
Growing Degree Days 8 (Base 50)    
Moisture  
Dew Point 43 °F    
Average Humidity 57    
Maximum Humidity 77    
Minimum Humidity 37    
Precipitation  
Precipitation 0.02 in 0.02 in 0.59 in (2001)
Month to date precipitation 1.40 0.23  
Year to date precipitation 9.41 8.31  
Snow  
Snow 0.00 in 0.00 in 0.00 in (2006)
Month to date snowfall 0.0 0.0  
Since 1 July snowfall 0.0 0.0  
Snow Depth 0.00 in    
Sea Level Pressure  
Sea Level Pressure 29.92 in    
Wind  
Wind Speed 10 mph (ESE)    
Max Wind Speed 25 mph    
Max Gust Speed 31 mph    
Visibility 10 miles    
Events      
T = Trace of Precipitation, MM = Missing Value Source: NWS Daily Summary

Daily Weather History Graph

Daily Weather History Graph

Search for Another Location

Airport:

Trip Planner

Search our weather history database for the weather conditions in past years. The results will help you decide how hot, cold, wet, or windy it might be!

Date:

Astronomy

Oct. 11, 2011 Rise Set
Actual Time 7:54 AM MDT 7:08 PM MDT
Civil Twilight 7:25 AM MDT 7:37 PM MDT
Nautical Twilight 6:52 AM MDT 8:10 PM MDT
Astronomical Twilight 6:18 AM MDT 8:43 PM MDT
Moon 6:40 PM MDT (10/11) 7:37 AM MDT (10/11)
Length of Visible Light 12h 12m
Length of Day
11h 14m
Full, 100% of the Moon is Illuminated
Oct 11
Full
Oct 11
Full
Oct 19
Last Quarter
Oct 26
New
Nov 2
First Quarter

Hourly Weather History & Observations

Time (MDT) Temp. Dew Point Humidity Pressure Visibility Wind Dir Wind Speed Gust Speed Precip Events Conditions
12:53 AM 52.0 °F 46.0 °F 80% 29.78 in 10.0 mi SSE 9.2 mph - 0.02 in   Overcast
1:53 AM 53.1 °F 46.9 °F 80% 29.79 in 10.0 mi SSE 9.2 mph - N/A   Clear
2:53 AM 54.0 °F 46.0 °F 75% 29.81 in 10.0 mi ESE 15.0 mph - N/A   Overcast
3:53 AM 53.6 °F 46.4 °F 77% 29.83 in 10.0 mi ESE 12.7 mph - N/A   Mostly Cloudy
4:53 AM 55.0 °F 46.9 °F 74% 29.81 in 10.0 mi SE 11.5 mph - 0.00 in   Overcast
5:53 AM 54.0 °F 46.9 °F 77% 29.82 in 10.0 mi ESE 9.2 mph - N/A   Overcast
6:53 AM 54.0 °F 46.9 °F 77% 29.82 in 10.0 mi SE 10.4 mph - N/A   Overcast
7:53 AM 53.6 °F 46.4 °F 77% 29.85 in 10.0 mi SE 8.1 mph - N/A   Scattered Clouds
8:53 AM 53.1 °F 46.9 °F 80% 29.86 in 10.0 mi ESE 6.9 mph - N/A   Mostly Cloudy
9:53 AM 55.4 °F 48.2 °F 77% 29.89 in 10.0 mi ESE 4.6 mph - N/A   Overcast
10:53 AM 57.0 °F 50.0 °F 77% 29.89 in 10.0 mi NNE 6.9 mph - 0.00 in   Mostly Cloudy
11:53 AM 63.0 °F 46.9 °F 56% 29.90 in 10.0 mi WSW 4.6 mph - N/A   Clear
12:53 PM 63.0 °F 43.0 °F 48% 29.92 in 10.0 mi WNW 11.5 mph - N/A   Scattered Clouds
1:53 PM 64.4 °F 37.4 °F 37% 29.95 in 10.0 mi WNW 16.1 mph 26.5 mph N/A   Overcast
2:53 PM 64.0 °F 39.0 °F 40% 29.93 in 10.0 mi NW 19.6 mph 28.8 mph N/A   Overcast
3:53 PM 64.9 °F 39.0 °F 39% 29.95 in 10.0 mi NW 18.4 mph 24.2 mph N/A   Mostly Cloudy
4:53 PM 64.9 °F 39.9 °F 40% 29.96 in 10.0 mi NW 17.3 mph 24.2 mph N/A   Partly Cloudy
5:53 PM 64.0 °F 37.9 °F 38% 29.98 in 10.0 mi NW 15.0 mph - N/A   Clear
6:53 PM 60.8 °F 39.2 °F 45% 30.03 in 10.0 mi NNW 9.2 mph - N/A   Mostly Cloudy
7:53 PM 57.0 °F 41.0 °F 55% 30.03 in 10.0 mi North 6.9 mph - N/A   Clear
8:53 PM 54.0 °F 39.9 °F 59% 30.05 in 10.0 mi East 4.6 mph - N/A   Scattered Clouds
9:53 PM 55.9 °F 42.1 °F 60% 30.06 in 10.0 mi Calm Calm - N/A   Mostly Cloudy
10:53 PM 51.1 °F 41.0 °F 68% 30.07 in 10.0 mi SE 5.8 mph - N/A   Clear
11:53 PM 52.0 °F 39.9 °F 63% 30.07 in 10.0 mi South 5.8 mph - N/A   Clear